Date String (YYYY-MM-DD hh:mm:ss) UTC,Instrument flags,Ambient pressure (hPa),Sample flow (lpm),Bypass flow (lpm),Sample temperature (°C),Ambient temperature (°C),ASC tube jacket temperature (°C),LED temperature (°C),Box temperature (°C),Sample RH (%),Span deviation,Mass concentration (μg/m³),Mass concentration (μg/m³),Mass concentration (μg/m³)
DateTimeUTC,F1_M11,P_M11,Q1_M11,Q2_M11,T1_M11,T2_M11,T3_M11,T4_M11,T5_M11,U1_M11,ZSPAN_M11,X0_M11,X2_M11,X1_M11
2021-10-26 10:00:00,,0813.1,5.00,0.00,29.2,28.4,00.0,38.4,30.9,10.8,-000.1,0014.98,0005.59,0004.55
2021-10-26 10:01:00,,0813.1,5.00,0.00,29.2,28.3,00.0,38.4,30.9,11.1,-000.0,0014.33,0005.44,0004.43
2021-10-26 10:02:00,,0813.1,4.99,0.00,29.2,28.3,00.0,38.4,30.9,11.6,-000.6,0013.86,0005.37,0004.37
2021-10-26 10:03:00,,0813.2,5.00,0.00,29.2,28.3,00.0,38.4,30.9,12.4,-001.1,0014.38,0005.40,0004.42
2021-10-26 10:04:00,,0813.0,5.01,0.00,29.2,28.2,00.0,38.4,30.8,11.7,-001.0,0014.08,0005.31,0004.39
2021-10-26 10:05:00,,0813.1,5.00,0.00,29.2,28.2,00.0,38.3,30.8,11.8,-001.6,0013.94,0005.38,0004.45
2021-10-26 10:06:00,,0813.1,5.00,0.00,29.1,28.2,00.0,38.3,30.8,10.6,-001.4,0013.76,0005.37,0004.45
2021-10-26 10:07:00,,0813.2,5.00,0.00,29.1,28.2,00.0,38.3,30.9,10.6,-002.1,0012.80,0005.12,0004.28
2021-10-26 10:08:00,,0813.3,5.00,0.00,29.1,28.2,00.0,38.3,30.9,10.7,-000.9,0011.34,0004.84,0004.06
2021-10-26 10:09:00,,0813.2,5.00,0.00,29.1,28.2,00.0,38.3,30.8,10.8,0000.0,0010.89,0004.70,0003.96
2021-10-26 10:10:00,,0813.1,4.99,0.00,29.1,28.2,00.0,38.3,30.8,10.8,0000.0,0011.20,0004.67,0003.91
2021-10-26 10:11:00,,0812.9,5.01,0.00,29.1,28.2,00.0,38.3,30.9,11.0,0000.0,0011.14,0004.61,0003.89
2021-10-26 10:12:00,,0813.1,4.99,0.00,29.1,28.2,00.0,38.3,30.9,11.2,0000.0,0011.62,0004.60,0003.90
2021-10-26 10:13:00,,0813.2,5.00,0.00,29.1,28.2,00.0,38.3,30.9,11.5,0000.0,0011.93,0004.64,0003.95
2021-10-26 10:14:00,,0813.1,5.01,0.00,29.1,28.2,00.0,38.3,30.9,11.6,0000.0,0011.48,0004.51,0003.84
2021-10-26 10:15:00,,0813.0,5.00,0.00,29.1,28.2,00.0,38.3,30.8,11.6,0000.0,0011.68,0004.40,0003.75
2021-10-26 10:16:00,,0812.9,4.99,0.00,29.1,28.2,00.0,38.3,30.9,11.6,0000.0,0012.22,0004.27,0003.66
2021-10-26 10:17:00,,0813.1,4.99,0.00,29.1,28.2,00.0,38.3,30.9,11.6,0000.0,0012.81,0004.28,0003.64
2021-10-26 10:18:00,,0812.9,5.01,0.00,29.1,28.2,00.0,38.3,30.8,11.4,0000.0,0013.41,0004.36,0003.70
2021-10-26 10:19:00,,0812.9,5.00,0.00,29.1,28.2,00.0,38.2,30.8,11.6,0000.0,0014.28,0004.49,0003.77
2021-10-26 10:20:00,,0812.8,5.00,0.00,29.1,28.2,00.0,38.2,30.8,11.7,0000.0,0014.48,0004.62,0003.85
2021-10-26 10:21:00,,0812.8,4.99,0.00,29.1,28.2,00.0,38.2,30.8,11.8,0000.0,0014.20,0004.73,0003.94
2021-10-26 10:22:00,,0812.8,4.99,0.00,29.1,28.2,00.0,38.2,30.8,11.8,0000.0,0014.34,0004.87,0003.99
2021-10-26 10:23:00,,0812.8,5.02,0.00,29.1,28.2,00.0,38.2,30.9,11.7,0000.0,0013.43,0004.91,0004.02
2021-10-26 10:24:00,,0812.8,4.99,0.00,29.1,28.2,00.0,38.2,30.9,11.6,0000.0,0013.32,0004.84,0003.96
2021-10-26 10:25:00,,0812.7,4.99,0.00,29.1,28.2,00.0,38.2,30.9,11.6,0000.0,0013.12,0004.77,0003.89
2021-10-26 10:26:00,,0812.8,4.99,0.00,29.1,28.2,00.0,38.2,30.9,11.8,0000.0,0013.00,0004.74,0003.87
2021-10-26 10:27:00,,0812.7,5.01,0.00,29.1,28.2,00.0,38.2,30.8,11.6,0000.0,0011.80,0004.75,0003.88
2021-10-26 10:28:00,,0812.7,5.01,0.00,29.1,28.2,00.0,38.2,30.8,11.5,0000.0,0011.43,0004.77,0003.86
2021-10-26 10:29:00,,0812.7,4.99,0.00,29.1,28.2,00.0,38.2,30.8,11.7,0000.0,0011.81,0004.84,0003.87
2021-10-26 10:30:00,,0812.7,5.01,0.00,29.0,28.2,00.0,38.2,30.8,11.6,0000.0,0011.21,0004.82,0003.85
2021-10-26 10:31:00,,0812.6,5.00,0.00,29.0,28.1,00.0,38.2,30.8,11.5,0000.0,0011.16,0004.77,0003.81
2021-10-26 10:32:00,,0812.6,5.00,0.00,29.0,28.1,00.0,38.2,30.8,11.5,0000.0,0011.09,0004.71,0003.79
2021-10-26 10:33:00,,0812.6,5.00,0.00,29.0,28.1,00.0,38.2,30.8,11.7,0000.0,0011.75,0004.66,0003.79
2021-10-26 10:34:00,,0812.6,5.01,0.00,29.0,28.1,00.0,38.2,30.7,11.7,0000.0,0011.72,0004.62,0003.77
2021-10-26 10:35:00,,0812.6,5.00,0.00,29.0,28.1,00.0,38.1,30.7,11.7,0000.0,0011.73,0004.64,0003.76
2021-10-26 10:36:00,,0812.6,5.00,0.00,29.0,28.1,00.0,38.1,30.8,11.7,0000.0,0011.97,0004.71,0003.79
2021-10-26 10:37:00,,0812.6,5.00,0.00,29.0,28.1,00.0,38.1,30.7,11.7,0000.0,0012.45,0004.72,0003.78
2021-10-26 10:38:00,,0812.5,5.01,0.00,29.0,28.1,00.0,38.1,30.7,11.8,0000.0,0013.59,0004.72,0003.76
2021-10-26 10:39:00,,0812.5,5.01,0.00,29.0,28.1,00.0,38.1,30.7,12.0,0000.0,0013.53,0004.73,0003.79
2021-10-26 10:40:00,,0812.4,4.99,0.00,28.9,28.1,00.0,38.1,30.7,12.5,0000.0,0013.74,0004.85,0003.88
2021-10-26 10:41:00,,0812.5,4.99,0.00,28.9,28.1,00.0,38.1,30.7,12.3,0000.0,0014.19,0005.01,0003.98
2021-10-26 10:42:00,,0812.5,5.01,0.00,28.9,28.1,00.0,38.1,30.7,12.1,0000.5,0014.43,0005.09,0004.04
2021-10-26 10:43:00,,0812.5,5.01,0.00,28.9,28.1,00.0,38.1,30.7,11.8,0000.4,0014.58,0005.08,0004.03
2021-10-26 10:44:00,,0812.5,5.00,0.00,28.9,28.1,00.0,38.1,30.7,11.4,0000.0,0013.86,0005.07,0003.98
2021-10-26 10:45:00,,0812.5,5.01,0.00,28.9,28.1,00.0,38.1,30.7,11.4,0000.0,0013.67,0005.04,0003.93
2021-10-26 10:46:00,,0812.5,4.99,0.00,28.9,28.1,00.0,38.1,30.7,11.4,0000.0,0013.72,0005.01,0003.91
2021-10-26 10:47:00,,0812.4,4.99,0.00,28.9,28.1,00.0,38.1,30.7,11.6,0000.0,0013.83,0004.98,0003.89
2021-10-26 10:48:00,,0812.4,4.99,0.00,28.9,28.0,00.0,38.1,30.7,11.5,0000.0,0013.90,0004.96,0003.90
2021-10-26 10:49:00,,0812.3,5.01,0.00,28.9,28.0,00.0,38.0,30.7,11.0,0000.0,0012.99,0004.85,0003.86
2021-10-26 10:50:00,,0812.4,5.00,0.00,28.9,28.1,00.0,38.0,30.6,10.8,0000.0,0012.83,0004.71,0003.78
2021-10-26 10:51:00,,0812.4,5.00,0.00,28.9,28.1,00.0,38.0,30.7,10.8,0000.0,0011.51,0004.46,0003.61
2021-10-26 10:52:00,,0812.4,5.01,0.00,28.9,28.1,00.0,38.0,30.7,10.8,0000.0,0010.81,0004.17,0003.43
2021-10-26 10:53:00,,0812.4,5.00,0.00,28.9,28.0,00.0,38.0,30.7,11.0,0000.0,0010.44,0004.00,0003.31
2021-10-26 10:54:00,,0812.3,5.00,0.00,28.9,28.0,00.0,38.0,30.7,10.9,0000.0,0010.22,0003.94,0003.25
2021-10-26 10:55:00,,0812.3,5.01,0.00,28.9,28.1,00.0,38.0,30.7,10.9,0000.0,0009.85,0003.90,0003.20
2021-10-26 10:56:00,,0812.3,5.01,0.00,28.9,28.1,00.0,38.0,30.7,10.6,0000.0,0009.66,0003.83,0003.17
2021-10-26 10:57:00,,0812.4,4.99,0.00,28.9,28.1,00.0,38.0,30.7,10.6,0000.0,0009.26,0003.70,0003.07
2021-10-26 10:58:00,,0812.4,5.00,0.00,28.9,28.1,00.0,38.0,30.7,10.6,0000.0,0008.55,0003.59,0002.97
2021-10-26 10:59:00,,0812.4,5.00,0.00,28.9,28.1,00.0,38.0,30.7,10.6,0000.0,0007.84,0003.45,0002.81
